When you browse on this site, cookies collect data to enhance your experience and personalize the content and advertising you see.
Visit our Privacy Policy to learn more. By continuing to use the site, you agree to this use of cookies and data.
  • In Schweiz
  • Länderverzeichnis
  • Für 7 Tage
  • Wassertemperatur
  • Satellitenkarten
  • Wetterkarte
  • Widgets
  • user-avatar
    Anmelden

    Stündliche Wetter Wadshir

    Heute, 17 Juni, Montag

    Zeit Temperatur Niederschläge Wind Luftdruck Luftfeuchtigkeit
    00:00 +28°C° 0 mm 8 m/S 740 mmHg 49%
    01:00 +27°C° 0 mm 8 m/S 740 mmHg 54%
    02:00 +26°C° 0 mm 7 m/S 739 mmHg 59%
    03:00 +26°C° 0 mm 6 m/S 739 mmHg 63%
    04:00 +24°C° 0 mm 6 m/S 740 mmHg 65%
    05:00 +25°C° 0 mm 5 m/S 740 mmHg 67%
    06:00 +25°C° 0 mm 5 m/S 741 mmHg 69%
    07:00 +26°C° 0 mm 6 m/S 741 mmHg 64%
    08:00 +27°C° 0 mm 6 m/S 741 mmHg 59%
    09:00 +28°C° 0 mm 6 m/S 741 mmHg 54%
    10:00 +30°C° 0 mm 7 m/S 741 mmHg 49%
    11:00 +32°C° 0 mm 7 m/S 740 mmHg 44%
    12:00 +34°C° 0 mm 8 m/S 740 mmHg 39%
    13:00 +34°C° 0 mm 8 m/S 739 mmHg 38%
    14:00 +35°C° 0 mm 8 m/S 738 mmHg 37%
    15:00 +35°C° 0 mm 8 m/S 737 mmHg 35%
    16:00 +35°C° 0 mm 8 m/S 737 mmHg 37%
    17:00 +34°C° 0 mm 8 m/S 737 mmHg 40%
    18:00 +34°C° 0 mm 8 m/S 737 mmHg 42%
    19:00 +33°C° 0 mm 8 m/S 738 mmHg 45%
    20:00 +32°C° 0 mm 7 m/S 738 mmHg 48%
    21:00 +30°C° 0 mm 7 m/S 739 mmHg 51%
    22:00 +30°C° 0 mm 7 m/S 739 mmHg 54%
    23:00 +29°C° 0 mm 7 m/S 740 mmHg 57%

    Morgen, 18 Juni, Dienstag

    Zeit Temperatur Niederschläge Wind Luftdruck Luftfeuchtigkeit
    00:00 +28°C° 0 mm 7 m/S 740 mmHg 60%
    01:00 +28°C° 0 mm 7 m/S 740 mmHg 63%
    02:00 +27°C° 0 mm 6 m/S 740 mmHg 66%
    03:00 +27°C° 0 mm 6 m/S 739 mmHg 69%
    04:00 +26°C° 0 mm 6 m/S 740 mmHg 71%
    05:00 +26°C° 0 mm 5 m/S 740 mmHg 73%
    06:00 +26°C° 0 mm 5 m/S 740 mmHg 74%
    07:00 +26°C° 0 mm 5 m/S 741 mmHg 71%
    08:00 +27°C° 0 mm 5 m/S 741 mmHg 67%
    09:00 +28°C° 0 mm 6 m/S 741 mmHg 64%
    10:00 +29°C° 0 mm 6 m/S 741 mmHg 59%
    11:00 +30°C° 0 mm 6 m/S 740 mmHg 54%
    12:00 +32°C° 0 mm 6 m/S 740 mmHg 49%
    13:00 +33°C° 0 mm 6 m/S 739 mmHg 46%
    14:00 +34°C° 0 mm 7 m/S 738 mmHg 44%
    15:00 +35°C° 0 mm 7 m/S 737 mmHg 41%
    16:00 +34°C° 0 mm 7 m/S 737 mmHg 41%
    17:00 +34°C° 0 mm 7 m/S 737 mmHg 42%
    18:00 +34°C° 0 mm 7 m/S 737 mmHg 42%
    19:00 +33°C° 0 mm 7 m/S 737 mmHg 46%
    20:00 +32°C° 0 mm 7 m/S 738 mmHg 50%
    21:00 +32°C° 0 mm 7 m/S 739 mmHg 54%
    22:00 +30°C° 0 mm 6 m/S 739 mmHg 55%
    23:00 +29°C° 0 mm 6 m/S 739 mmHg 56%

    übermorgen, 19 Juni, Mittwoch

    Zeit Temperatur Niederschläge Wind Luftdruck Luftfeuchtigkeit
    00:00 +29°C° 0 mm 6 m/S 739 mmHg 57%
    01:00 +28°C° 0 mm 6 m/S 739 mmHg 61%
    02:00 +27°C° 0 mm 6 m/S 739 mmHg 64%
    03:00 +26°C° 0 mm 6 m/S 739 mmHg 67%
    04:00 +26°C° 0 mm 5 m/S 739 mmHg 69%
    05:00 +25°C° 0 mm 4 m/S 739 mmHg 72%
    06:00 +25°C° 0 mm 3 m/S 739 mmHg 74%
    07:00 +26°C° 0 mm 4 m/S 739 mmHg 69%
    08:00 +27°C° 0 mm 5 m/S 740 mmHg 64%
    09:00 +28°C° 0 mm 7 m/S 740 mmHg 58%
    10:00 +30°C° 0 mm 7 m/S 740 mmHg 52%
    11:00 +33°C° 0 mm 7 m/S 740 mmHg 45%
    12:00 +34°C° 0 mm 8 m/S 739 mmHg 38%
    13:00 +35°C° 0 mm 8 m/S 738 mmHg 36%
    14:00 +37°C° 0 mm 8 m/S 737 mmHg 34%
    15:00 +38°C° 0 mm 8 m/S 737 mmHg 33%
    16:00 +37°C° 0 mm 8 m/S 736 mmHg 35%
    17:00 +35°C° 0 mm 8 m/S 736 mmHg 38%
    18:00 +35°C° 0 mm 7 m/S 736 mmHg 41%
    19:00 +34°C° 0 mm 8 m/S 737 mmHg 44%
    20:00 +33°C° 0 mm 8 m/S 737 mmHg 47%
    21:00 +32°C° 0 mm 9 m/S 738 mmHg 49%
    22:00 +31°C° 0 mm 9 m/S 738 mmHg 53%
    23:00 +29°C° 0 mm 9 m/S 738 mmHg 56%

    20 Juni, Donnerstag

    Zeit Temperatur Niederschläge Wind Luftdruck Luftfeuchtigkeit
    00:00 +28°C° 0 mm 9 m/S 738 mmHg 60%
    01:00 +27°C° 0 mm 8 m/S 738 mmHg 63%
    02:00 +27°C° 0 mm 7 m/S 738 mmHg 66%
    03:00 +26°C° 0 mm 7 m/S 738 mmHg 70%
    04:00 +26°C° 0 mm 6 m/S 738 mmHg 71%
    05:00 +26°C° 0 mm 5 m/S 739 mmHg 73%
    06:00 +25°C° 0 mm 4 m/S 739 mmHg 74%
    07:00 +26°C° 0 mm 5 m/S 739 mmHg 69%
    08:00 +27°C° 0 mm 6 m/S 740 mmHg 64%
    09:00 +28°C° 0 mm 7 m/S 740 mmHg 58%
    10:00 +31°C° 0 mm 8 m/S 740 mmHg 52%
    11:00 +33°C° 0 mm 8 m/S 739 mmHg 46%
    12:00 +34°C° 0 mm 8 m/S 739 mmHg 40%
    13:00 +35°C° 0 mm 8 m/S 738 mmHg 39%
    14:00 +35°C° 0 mm 8 m/S 737 mmHg 38%
    15:00 +37°C° 0 mm 8 m/S 736 mmHg 38%
    16:00 +35°C° 0 mm 8 m/S 736 mmHg 39%
    17:00 +34°C° 0 mm 8 m/S 736 mmHg 41%
    18:00 +34°C° 0 mm 8 m/S 736 mmHg 43%
    19:00 +33°C° 0 mm 8 m/S 736 mmHg 45%
    20:00 +32°C° 0 mm 8 m/S 737 mmHg 46%
    21:00 +30°C° 0 mm 7 m/S 738 mmHg 48%
    22:00 +30°C° 0 mm 7 m/S 738 mmHg 52%
    23:00 +29°C° 0 mm 8 m/S 738 mmHg 56%

    21 Juni, Freitag

    Zeit Temperatur Niederschläge Wind Luftdruck Luftfeuchtigkeit
    00:00 +28°C° 0 mm 8 m/S 738 mmHg 60%
    01:00 +27°C° 0 mm 7 m/S 738 mmHg 63%
    02:00 +27°C° 0 mm 7 m/S 738 mmHg 67%
    03:00 +26°C° 0 mm 6 m/S 738 mmHg 70%
    04:00 +26°C° 0 mm 6 m/S 738 mmHg 71%
    05:00 +25°C° 0 mm 5 m/S 738 mmHg 72%
    06:00 +25°C° 0 mm 5 m/S 739 mmHg 73%
    07:00 +26°C° 0 mm 6 m/S 739 mmHg 69%
    08:00 +27°C° 0 mm 7 m/S 740 mmHg 64%
    09:00 +28°C° 0 mm 8 m/S 740 mmHg 59%
    10:00 +29°C° 0 mm 8 m/S 740 mmHg 54%
    11:00 +32°C° 0 mm 8 m/S 739 mmHg 48%
    12:00 +33°C° 0 mm 8 m/S 739 mmHg 43%
    13:00 +34°C° 0 mm 8 m/S 738 mmHg 42%
    14:00 +34°C° 0 mm 8 m/S 737 mmHg 41%
    15:00 +34°C° 0 mm 7 m/S 736 mmHg 40%
    16:00 +34°C° 0 mm 7 m/S 736 mmHg 41%
    17:00 +34°C° 0 mm 7 m/S 736 mmHg 41%
    18:00 +34°C° 0 mm 7 m/S 736 mmHg 42%
    19:00 +33°C° 0 mm 7 m/S 736 mmHg 44%
    20:00 +33°C° 0 mm 8 m/S 737 mmHg 46%
    21:00 +32°C° 0 mm 8 m/S 737 mmHg 47%
    22:00 +31°C° 0 mm 8 m/S 737 mmHg 51%
    23:00 +29°C° 0 mm 8 m/S 737 mmHg 54%

    22 Juni, Samstag

    Zeit Temperatur Niederschläge Wind Luftdruck Luftfeuchtigkeit
    00:00 +28°C° 0 mm 8 m/S 737 mmHg 57%
    01:00 +28°C° 0 mm 7 m/S 737 mmHg 60%
    02:00 +27°C° 0 mm 7 m/S 737 mmHg 64%
    03:00 +26°C° 0 mm 6 m/S 737 mmHg 67%
    04:00 +26°C° 0 mm 7 m/S 737 mmHg 69%
    05:00 +26°C° 0 mm 7 m/S 738 mmHg 71%
    06:00 +24°C° 0 mm 7 m/S 738 mmHg 73%
    07:00 +26°C° 0 mm 7 m/S 739 mmHg 69%
    08:00 +27°C° 0 mm 8 m/S 739 mmHg 65%
    09:00 +28°C° 0 mm 8 m/S 740 mmHg 61%
    10:00 +29°C° 0 mm 8 m/S 739 mmHg 54%
    11:00 +32°C° 0 mm 8 m/S 739 mmHg 47%
    12:00 +34°C° 0 mm 7 m/S 738 mmHg 41%
    13:00 +34°C° 0 mm 7 m/S 737 mmHg 39%
    14:00 +35°C° 0 mm 7 m/S 736 mmHg 38%
    15:00 +35°C° 0 mm 6 m/S 735 mmHg 37%
    16:00 +35°C° 0 mm 6 m/S 735 mmHg 38%
    17:00 +34°C° 0 mm 6 m/S 735 mmHg 39%
    18:00 +34°C° 0 mm 6 m/S 735 mmHg 41%
    19:00 +34°C° 0 mm 6 m/S 736 mmHg 42%
    20:00 +33°C° 0 mm 6 m/S 736 mmHg 43%
    21:00 +33°C° 0 mm 7 m/S 737 mmHg 44%
    22:00 +32°C° 0 mm 7 m/S 737 mmHg 46%
    23:00 +29°C° 0 mm 8 m/S 737 mmHg 49%
    Mehr zeigen